This is the latest recevied weather packets stored in our database for station/object EA5GK-10. If no packets are shown the sender has not sent any weather packets the latest 10 day(s).
| Time | Temp. | Humidity | Pressure | Rain* | Wind** | Luminosity | Snow |
|---|---|---|---|---|---|---|---|
| 1788000892 | 28.89° C | 28% | 1020.2 hPa | - | - | - | - |
| 1787999992 | 28.33° C | 28% | 1020.3 hPa | - | - | - | - |
| 1787999092 | 28.33° C | 29% | 1020.5 hPa | - | - | - | - |
| 1787998192 | 27.78° C | 30% | 1020.5 hPa | - | - | - | - |
| 1787997292 | 27.78° C | 31% | 1020.6 hPa | - | - | - | - |
| 1787996391 | 27.22° C | 33% | 1020.6 hPa | - | - | - | - |
| 1787995491 | 27.22° C | 34% | 1020.6 hPa | - | - | - | - |
| 1787994591 | 26.67° C | 37% | 1020.6 hPa | - | - | - | - |
| 1787993691 | 26.11° C | 39% | 1020.6 hPa | - | - | - | - |
| 1787992791 | 25.56° C | 40% | 1020.6 hPa | - | - | - | - |
| 1787991891 | 25.56° C | 42% | 1020.4 hPa | - | - | - | - |
| 1787990095 | 24.44° C | 44% | 1020.1 hPa | - | - | - | - |
| 1787989195 | 23.89° C | 44% | 1020.1 hPa | - | - | - | - |
| 1787988294 | 22.78° C | 46% | 1020.1 hPa | - | - | - | - |
| 1787987394 | 22.22° C | 47% | 1020 hPa | - | - | - | - |
| 1787986494 | 21.11° C | 50% | 1020 hPa | - | - | - | - |
| 1787985594 | 20° C | 52% | 1019.9 hPa | - | - | - | - |
| 1787984694 | 19.44° C | 53% | 1019.8 hPa | - | - | - | - |
| 1787983794 | 18.89° C | 54% | 1019.5 hPa | - | - | - | - |
| 1787982894 | 18.89° C | 54% | 1019.6 hPa | - | - | - | - |
| 1787981994 | 18.89° C | 54% | 1019.4 hPa | - | - | - | - |
| 1787981093 | 18.89° C | 54% | 1019.1 hPa | - | - | - | - |
| 1787980193 | 18.89° C | 55% | 1019 hPa | - | - | - | - |
| 1787979293 | 19.44° C | 55% | 1018.9 hPa | - | - | - | - |
| 1787978393 | 19.44° C | 55% | 1018.9 hPa | - | - | - | - |
* Rain since midnight (hover to see other rain measurements)
** Current wind speed in m/s (hover to see current wind gust speed)